Overview Statistics Trail Chart Weather Telemetry Raw packets
 

This is the latest recevied weather packets stored in our database for station/object KC2GYU. If no packets are shown the sender has not sent any weather packets the latest 10 day(s).

<< 20 21 22 23 24 25 26 >>
Time Temp. Humidity Pressure Rain* Wind** Luminosity Snow
1777977258 12.78° C 95% 1013.1 hPa 0 mm - 22 W/m² -
1777976955 12.78° C 95% 1013 hPa 0 mm - 18 W/m² -
1777976674 12.78° C 95% 1012.9 hPa 0 mm - 15 W/m² -
1777976348 12.78° C 94% 1012.9 hPa 0 mm - 12 W/m² -
1777976043 12.78° C 94% 1012.9 hPa 0 mm - 10 W/m² -
1777975739 12.78° C 93% 1012.7 hPa 0 mm - 7 W/m² -
1777975436 13.33° C 92% 1012.7 hPa 0 mm - 4 W/m² -
1777975131 13.33° C 92% 1012.9 hPa 0 mm - 2 W/m² -
1777974829 13.89° C 91% 1012.5 hPa 0 mm - 0 W/m² -
1777974525 13.89° C 89% 1012.6 hPa 0 mm - 0 W/m² -
1777974222 14.44° C 88% 1012.7 hPa 0 mm - 0 W/m² -
1777973917 14.44° C 87% 1012.6 hPa 0 mm - 0 W/m² -
1777973615 15° C 87% 1012.4 hPa 0 mm - 0 W/m² -
1777973312 15° C 87% 1012.4 hPa 0 mm - 0 W/m² -
1777973011 15° C 86% 1012.3 hPa 0 mm - 0 W/m² -
1777972707 15° C 88% 1012.3 hPa 0 mm - 0 W/m² -
1777972405 15° C 87% 1012.3 hPa 0 mm - 0 W/m² -
1777972103 15° C 88% 1012.2 hPa 0 mm - 0 W/m² -
1777971801 15° C 87% 1012.4 hPa 0 mm - 0 W/m² -
1777971498 13.89° C 91% 1012.4 hPa 0 mm - 0 W/m² -
1777971196 13.33° C 94% 1012.4 hPa 0 mm - 0 W/m² -
1777970893 12.78° C 96% 1012.4 hPa 0 mm - 0 W/m² -
1777970592 12.78° C 97% 1012.3 hPa 0 mm - 0 W/m² -
1777970288 12.78° C 97% 1012.3 hPa 0 mm - 0 W/m² -
1777969986 12.78° C 96% 1012.2 hPa 0 mm - 0 W/m² -

* Rain latest hour (hover to see other rain measurements)
** Current wind speed in m/s (hover to see current wind gust speed)